Regional Weather Roundup
Issued by NWS Wakefield, VA

Home | Current Version | Previous Version | Text Only | Print | Product List | Glossary Off
Versions: 1 2 3 4 5 6 7 8 9 10 11 12 13 14 15 16 17 18 19 20 21 22 23 24 25 26 27 28 29 30 31 32 33 34 35 36 37 38 39 40 41 42 43 44 45 46 47 48 49 50

000
ASUS41 KAKQ 251515
RWRAKQ

REGIONAL WEATHER ROUNDUP
NATIONAL WEATHER SERVICE WAKEFIELD VA
1100 AM EDT SAT MAR 25 2017

Note: "fair" indicates few or no clouds below 12,000 feet with no
significant weather and/or obstructions to visibility. * = Denotes
station may not report precipitation (e.g., rain,snow,etc.),
thunder or fog.

VAZ042-051-052>054-056-251600-
NORTHERN VIRGINIA

CITY           SKY/WX    TMP DP  RH WIND       PRES   REMARKS
WASH NATIONAL  PTSUNNY   65  51  60 S12       30.19F
DULLES         CLOUDY    68  49  50 S8        30.19S
FORT BELVOIR   MOSUNNY   69  49  48 S6        30.19F
QUANTICO       SUNNY     57  50  77 S12       30.21F
FREDERICKSBRG* MOSUNNY   69  52  53 SW8       30.20F
STAFFORD*      MOSUNNY   68  49  51 SW5       30.24F
WARRENTON      SUNNY     71  46  41 SW7       30.20S
CULPEPER*      MOSUNNY   70  52  53 SW7       30.21S
MANASSAS*      MOSUNNY   69  51  52 SW9       30.20F
LEESBURG*      CLOUDY    70  54  56 SW3       30.20S
WINCHESTER     CLOUDY    64  48  55 SW7       30.20R
FRONT ROYAL*   CLOUDY    68  50  52 S8        30.19S
LURAY*         MOSUNNY   68  52  56 SW7       30.21F
$$

VAZ048-049-060>072-079>083-251600-
CENTRAL AND SOUTH CENTRAL VIRGINIA

CITY           SKY/WX    TMP DP  RH WIND       PRES   REMARKS
RICHMOND       PTSUNNY   68  51  54 SW15      30.25S
CHESTERFIELD*  FAIR      70  43  37 W14       30.27S
PETERSBURG*    MOSUNNY   67  50  52 SW12G22   30.27S
HANOVER        PTSUNNY   69  48  47 SW10      30.25F
TAPPAHANNOCK*  PTSUNNY   68  37  32 SW12G23   30.24S
QUINTON*       FAIR      67  52  57 W10G17    30.25S
CHARLOTTSVILLE CLOUDY    70  49  47 S6        30.22S
GORDONSVILLE*  MOSUNNY   67  51  54 SW12      30.21F
ORANGE*        SUNNY     70  50  49 SW9       30.23S
LOUISA*        SUNNY     72  54  53 SW8G16    30.21F
BUMPASS*       FAIR      67  49  51 SW12G18   30.22F
FARMVILLE*     MOSUNNY   70  52  52 SW9G18    30.25S
CREWE*         FAIR      67  52  58 SW8G22    30.26F
FORT PICKETT*  FAIR      68  46  44 SW15G23   30.27F
CHASE CITY*    FAIR      65  50  57 SW7G22    30.29F
CLARKSVILLE*   FAIR      66  52  59 SW14G21   30.29F
SOUTH HILL*    CLOUDY    64  53  68 SW10G17   30.36S
LAWRENCEVILLE* FAIR      67  51  57 W13       30.29S
EMPORIA*       CLOUDY    68  52  56 SW12G23   30.31S
$$

VAZ088>098-251600-
SOUTHEAST VIRGINIA

CITY           SKY/WX    TMP DP  RH WIND       PRES   REMARKS
NORFOLK        PTSUNNY   69  51  52 W9G24     30.28S
VIRGINIA BEACH CLOUDY    69  50  50 SW17      30.28F
NORFOLK NAVAL  PTSUNNY   69  51  52 SW14      30.29F
WEST POINT*    PTSUNNY   69  49  50 SW12G18   30.27S
SALUDA*        FAIR      67  53  60 SW9G16    30.23F
NEWPORT NEWS   MOSUNNY   69  51  52 W15       30.27F
LANGLEY AFB    PTSUNNY   68  53  59 SW18      30.26F
FORT EUSTIS    MOSUNNY   70  53  54 W8        30.25S
WILLIAMSBURG*  CLOUDY    70  54  56 SW6G16    30.27F
HR EXEC AP*    FAIR      68  54  60 W15G21    30.27F
FRANKLIN*      MOSUNNY   69  51  54 SW13      30.30F
US460-WAKEFLD  PTSUNNY   69  53  56 SW12G18   30.28F
$$

VAZ020-022-025-037-045-251600-
WEST CENTRAL AND SOUTHWEST VIRGINIA

CITY           SKY/WX    TMP DP  RH WIND       PRES   REMARKS
STAUNTON*      MOSUNNY   68  49  51 SW8       30.25S
WAYNESBORO*    MOSUNNY   66  50  56 SW10G16   30.25R
HOT SPRINGS VA MOSUNNY   57  41  54 W10       30.30R
LYNCHBURG      CLOUDY    66  48  52 S13       30.28S
DANVILLE       MOSUNNY   67  52  58 SW18G31   30.29F
SOUTH BOSTON*  FAIR      67  51  55 SW12G26   30.30S
MARTINSVILLE   SUNNY     65  49  55 W3        30.32S
ROANOKE        CLOUDY    66  47  50 VRB5      30.28F
BLACKSBURG     PTSUNNY   62  48  59 W5        30.32S
DUBLIN*        CLOUDY    62  47  58 S3        30.30F
MARION*        PTSUNNY   61  48  62 CALM      30.32R
HILLSVILLE*    MOSUNNY   61  49  64 CALM      30.29F
RICHLANDS*     FAIR      64  46  52 CALM      30.27S
WISE*          SUNNY     64  43  45 S8        30.28S
ABINGDON*      PTSUNNY   63  46  54 CALM      30.27F
$$

MDZ021>025-VAZ099-100-251600-
SOUTHERN MARYLAND AND THE DELMARVA PENINSULA

CITY           SKY/WX    TMP DP  RH WIND       PRES   REMARKS
PATUXENT RIVER PTSUNNY   67  52  58 W17G24    30.20F
BAY BRIDGE APT MOSUNNY   70  50  49 S7        30.18F
LEONARDTOWN    MOSUNNY   66  48  52 SW15      30.22S
DOVER          PTSUNNY   69  54  59 SW15      30.16F
GEORGETOWN     SUNNY     68  50  52 SW13      30.20F
EASTON         MOSUNNY   66  48  52 SW10      30.23F
CAMBRIDGE      SUNNY     66  50  55 VRB6      30.20F
SALISBURY      MOSUNNY   67  50  54 W15G22    30.21F
OCEAN CITY     MOSUNNY   66  49  54 SW18G24   30.21F
WALLOPS ISLAND CLOUDY    66  51  58 W13G23    30.23F
ACCOMACK*      PTSUNNY   65  52  61 SW16      30.24F
$$

NCZ012>017-030>032-251600-
NORTH CENTRAL AND EASTERN NORTH CAROLINA

CITY           SKY/WX    TMP DP  RH WIND       PRES   REMARKS
ROANOKE RAPIDS FAIR      68  54  60 SW14      30.32S
RALEIGH        CLOUDY    65  52  62 SW16      30.34S
ELIZABETH CITY CLOUDY    68  53  58 SW14      30.33S
AHOSKIE*         N/A     69  53  57 SW6       30.32S
EDENTON*       CLOUDY    68  53  58 SW9       30.34F
CURRITUCK*     CLOUDY    68  52  56 SW17      30.32S
KILL DEVIL HLS NOT AVBL
MANTEO         CLOUDY    66  50  55 W14       30.34F
CAPE HATTERAS  CLOUDY    70  51  51 SW9       30.37S
TARBORO*       NOT AVBL
GOLDSBORO      SUNNY     71  55  58 SW16      30.33F
WASHINGTON     SUNNY     69  52  55 SW12G17   30.34F
GREENVILLE     SUNNY     70  52  52 W12       30.34F
NEW BERN       SUNNY     73  52  47 SW8       30.37F
WILMINGTON     CLOUDY    70  53  54 SW9       30.37S
$$

VAZ048-251600-
ELSEWHERE

CITY           SKY/WX    TMP DP  RH WIND       PRES   REMARKS
HARRISBURG PA  CLOUDY    57  44  62 CALM      30.15S
BALTIMORE      CLOUDY    69  50  50 SW6       30.17F
ANNAPOLIS      PTSUNNY   71  51  49 VRB6      30.18F
ANDREWS AFB    MOSUNNY   71  49  45 W9        30.18F
PHILADELPHIA   CLOUDY    63  48  58 SW10      30.17S
HENDERSON NC   CLOUDY    63  50  62 SW12      30.31F
GREENSBORO     PTSUNNY   65  53  65 SW14      30.32S
ROCKY MOUNT    PTSUNNY   69  54  58 SW12      30.33F
$$

VAZ100-251600-
MARINE

STATION/POSITION TIME  TEMP    WIND        PRES    WAVE   SWELL
                       AIR SEA DIR/SP/G            HT/PER HT/PER
                 (UTC) (F)     (DEG/KT/KT) (MB)    (FT/S) (FT/S)
CAPE MAY NJ      1448   58 43  240/  7/  8 1021.8F
LEWES DE         1448   67 44  250/ 12/ 17 1022.0F
OCEAN-CITY-INLET 1448   62 44  270/ 13/ 18 1023.4F
WACHAPREAGUE VA  1448   65 51  240/ 11/ 16 1023.5F
THOMAS POINT MD  1500   57 45  160/ 13/ 13   N/A
GOOSES REEF MD   1500   54 44  230/  6/  8 1022.9    1/ 3
COVE POINT MD    1448   64     270/ 17/ 25 1022.5F
SOLOMONS ISLAND  1448   63 46  250/ 11/ 12   N/A
BISHOPS HEAD MD  1448   56 48  190/  7/  8 1023.7F
PINEY POINT MD   1448          280/  7/  7   N/A
POTOMAC MD       1500   52 46  290/  6/  8 1022.3    1/ 2
CAMBRIDGE MD     1448   65 45  210/  8/ 10 1021.9F
LEWISETTA VA     1448   63 48  260/ 11/ 14 1022.8F
RAPPAHANNOCK LGT 1448          190/ 16/ 17 1024.6F
STINGRAY PT      1450   59     260/ 12/ 14 1024.6F
YORK RVR RNG VA  1448   62     260/ 18/ 20 1023.9F
YORKTOWN VA      1448   66 49  240/ 12/ 18 1024.2F
JAMESTOWN VA     1500   63 51  240/ 12/ 17   N/A     1
DOMINION TERM VA 1448   60     240/ 10/ 12 1025.2F
KIPTOPEKE VA     1448      46  230/ 10/ 12   N/A
CHES BAY BRIDGE  1448   62 48  250/ 16/ 20 1025.1F
CAPE HENRY VA    1448   67     230/ 11/ 17   N/A
WILLOUBY STN VA  1448   60     230/ 16/ 17 1025.9F
S CRANEY ISL VA  1448   66     230/ 11/ 15 1025.2F
CAPE HENRY BUOY  1442      48                N/A     2/11
CAPE CHARLES BUO 1451      47                N/A     2/ 3
OFFSHORE WE BUOY 1451      47                N/A     2/ 6
64NM E OF VA BCH 1450   53 49  220/ 10/ 12 1026.7F   3/ 5   2/ 5
DUCK PIER NC     1448   62 47  240/  9/ 14 1026.7F
44100 DUCK FRF   1435      48                N/A     2/ 5
44056 DUCK FRF   1430      48                N/A     1/ 5
OREGON INLET NC  1436   56 55  190/  9/ 10 1027.8F
HATTERAS NC      1448   67 56  230/  6/ 11 1028.1S
DIAMOND SHLS NC  1450   69 76  270/ 14/ 17 1028.5R   3/ 5   2/11
CAPE LOOKOUT NC  1500   70     230/  8/ 11 1028.3S
$$



USA.gov is the U.S. government's official web portal to all federal, state and local government web resources and services.